Regional Weather Roundup
Issued by NWS

Home | Current Version | Previous Version | Graphics & Text | Print | Product List | Glossary On
Versions: 1 2 3 4 5 6 7 8 9 10 11 12 13 14 15 16 17 18 19 20 21 22 23 24 25 26 27 28 29 30 31 32 33 34 35 36 37 38 39 40 41 42 43 44 45 46 47 48 49 50
000
ASUS45 KPSR 010310
RWRAZ

ARIZONA REGIONAL HOURLY WEATHER ROUNDUP
NATIONAL WEATHER SERVICE PHOENIX AZ
800 PM MST THU JUL 31 2014

NOTE: FAIR INDICATES FEW OR NO CLOUDS BELOW 12,000 FEET WITH NO
SIGNIFICANT WEATHER AND/OR OBSTRUCTIONS TO VISIBILITY.

AZZ001>003-036-010400-
NORTHWEST ARIZONA

CITY           SKY/WX    TMP DP  RH WIND       PRES   REMARKS
BULLHEAD CITY  CLOUDY   108  50  14 S17       29.71R HX 104
KINGMAN        CLOUDY    87  50  27 SE17      30.00R
$$

AZZ004>008-015-016-018-010400-
NORTH CENTRAL ARIZONA

CITY           SKY/WX    TMP DP  RH WIND       PRES   REMARKS
GRAND CANYON   MOCLDY    61  56  83 SW5       30.28R
WILLIAMS       MOCLDY    59  52  77 S9        30.39R
PRESCOTT       LGT RAIN  70  57  63 NW13G21   30.24R
FLAGSTAFF      LGT RAIN  57  54  89 W5        30.36F
PAYSON         MOCLDY    73  52  46 N16G24    30.21F
PAGE           CLOUDY    77  53  43 S16       30.06F
$$

AZZ009>014-017-010400-
NORTHEAST ARIZONA

CITY           SKY/WX    TMP DP  RH WIND       PRES   REMARKS
WINSLOW        CLOUDY    76  49  38 NW12      30.19R
SAINT JOHNS    CLOUDY    66  60  81 SE9       30.27S
WINDOW ROCK    CLOUDY    66  55  67 N9        30.33R
SHOW LOW       LGT RAIN  64  54  68 E14       30.35R
$$

AZZ023-010400-
GREATER PHOENIX AREA

CITY           SKY/WX    TMP DP  RH WIND       PRES   REMARKS
PHOENIX        MOCLDY   103  54  19 NW16G26   29.80R HX 101
BUCKEYE          N/A     99  57  25 CALM      29.80R
GLENDALE       MOCLDY    99  55  23 N17G24    29.83
LUKE AFB       NOT AVBL
DEER VALLEY    MOCLDY    95  53  24 N15G29    29.85R
SCOTTSDALE     MOCLDY    97  53  22 NE16G31   29.86R
MESA-FALCON    MOCLDY    97  54  23 N17G29    29.85
CHANDLER       MOCLDY   102  54  19 S7        29.82R HX 100
$$

AZZ027-028-010400-
SOUTHWEST MARICOPA COUNTY AND PINAL COUNTY

CITY           SKY/WX    TMP DP  RH WIND       PRES   REMARKS
CASA GRANDE    CLOUDY   100  54  20 CALM      29.85R
GILA BEND      MOCLDY   100  59  25 SW14G21   29.81R HX 100
$$

AZZ503-504-507>509-010400-
SOUTHEAST ARIZONA

CITY           SKY/WX    TMP DP  RH WIND       PRES   REMARKS
TUCSON         PTCLDY    93  54  26 N3        29.98R
DAVIS-MONTHAN  CLOUDY    91  55  28 N5        29.97R
RYAN FIELD       N/A     91  54  27 CALM      29.96R
NOGALES        CLOUDY    82  59  45 S8        30.08R
SIERRA VISTA   MOCLDY    81  55  41 SW9       30.13R
DOUGLAS          N/A     78  61  55 E5        30.10
SAFFORD        MOCLDY    90  53  28 W8        29.96R
$$

AZZ020-021-025-026-031-010400-
SOUTHWEST ARIZONA

CITY           SKY/WX    TMP DP  RH WIND       PRES   REMARKS
YUMA           MOCLDY    99  58  25 S7        29.75S
$$

CAZ031-033-041-043-047-048-061-010400-
SOUTHERN CALIFORNIA

CITY           SKY/WX    TMP DP  RH WIND       PRES   REMARKS
DOWNTOWN L.A.  CLEAR     72  61  68 SW3       29.86R
L.A. AIRPORT   PTCLDY    69  61  75 W14       29.87R
SAN DIEGO      PTCLDY    72  65  78 W7        29.90R
BURBANK        CLEAR     80  58  46 SE9       29.86R
ONTARIO        PTCLDY    86  61  42 SW9       29.86R
RIVERSIDE      CLEAR     87  60  40 VRB5      29.86R
PALM SPRINGS   PTCLDY   105  54  18 E5        29.75R HX 103
EL CENTRO NAS  MOCLDY    99  69  37 SE12      29.70R HX 105
IMPERIAL       MOCLDY   100  69  36 SE16      29.70R HX 106
BLYTHE           N/A    N/A N/A N/A MISG      29.72R
NEEDLES        CLOUDY   109  45  11 SW14      29.74R HX 104
$$

NVZ020-UTZ003-010400-
SOUTHERN NEVADA-UTAH

CITY           SKY/WX    TMP DP  RH WIND       PRES   REMARKS
LAS VEGAS      MOCLDY   103  40  11 SW15      29.80R
SALT LAKE CITY MOCLDY    78  49  35 NW6       30.11R
$$

NMZ009-TXZ055-010400-
NEW MEXICO-WEST TEXAS

CITY           SKY/WX    TMP DP  RH WIND       PRES   REMARKS
ALBUQUERQUE    CLOUDY    67  56  67 E18       30.25R
EL PASO        MOCLDY    81  58  45 E15       30.07R
$$


........................KEY........................
SKY/WX - SKY CONDITION/WEATHER
TMP    - TEMPERATURE IN FAHRENHEIT
DP     - DEW POINT IN FAHRENHEIT
RH     - RELATIVE HUMIDITY IN PERCENT
WIND   - DIRECTION AND SPEED IN MILES PER HOUR (MPH)
VRB    - VARIABLE WIND DIRECTION
PRES   - MEAN SEA LEVEL PRESSURE IN INCHES OF MERCURY
         F - FALLING PRESSURE   R - RISING PRESSURE
         S - STEADY PRESSURE
VSB    - VISIBILITY IN MILES
HX     - HEAT INDEX IN FAHRENHEIT
WCI    - WIND CHILL INDEX IN FAHRENHEIT
TC     - TEMPERATURE IN CELSIUS WHICH IS ALSO KNOWN AS
         TEMPERATURE IN CENTIGRADE
AFB    - AIR FORCE BASE
         LUKE AFB IS LUKE AIR FORCE BASE
         DAVIS-MONTHAN IS DAVIS-MONTHAN AIR FORCE BASE
NAS    - NAVAL AIR STATION
         EL CENTRO NAS IS EL CENTRO NAVAL AIR STATION
N/A    - NOT AVAILABLE



USA.gov is the U.S. government's official web portal to all federal, state and local government web resources and services.